| time (UTC) | temp F | wind direction | speed knots | gust knots | rain 1hr in | rain 24hr in | rain mn in | humidity % | barometer mb |
| 20260506081103 | 0 | 165 | 3.5 | 6.1 | 0.00 | 0.00 | 0.00 | 89 | 1007.7 |
| 20260506080603 | 0 | 163 | 3.5 | 9.6 | 0.00 | 0.00 | 0.00 | 89 | 1007.7 |
| 20260506073102 | 0 | 146 | 2.6 | 13.0 | 0.00 | 0.00 | 0.00 | 91 | 1007.8 |
| 20260506072606 | 0 | 159 | 5.2 | 16.5 | 0.00 | 0.00 | 0.00 | 91 | 1007.8 |
| 20260506072103 | 0 | 142 | 6.1 | 21.7 | 0.00 | 0.00 | 0.00 | 91 | 1007.7 |
| 20260506071602 | 0 | 163 | 5.2 | 16.5 | 0.00 | 0.00 | 0.00 | 92 | 1007.5 |
| 20260506071103 | 0 | 132 | 7.8 | 13.0 | 0.00 | 0.00 | 0.00 | 92 | 1007.7 |
| 20260506070604 | 0 | 139 | 9.6 | 14.8 | 0.00 | 0.00 | 0.00 | 93 | 1007.7 |
| 20260506062103 | 0 | 194 | 0.0 | 2.6 | 0.00 | 0.00 | 0.00 | 95 | 1007.5 |
| 20260506061602 | 0 | 14 | 1.7 | 4.3 | 0.00 | 0.00 | 0.00 | 94 | 1007.2 |
| 20260506061102 | 0 | 336 | 0.9 | 1.7 | 0.00 | 0.00 | 0.00 | 94 | 1007.7 |
| 20260506060603 | 0 | 0 | 0.9 | 3.5 | 0.00 | 0.00 | 0.00 | 94 | 1007.5 |
| 20260506051102 | 0 | 322 | 3.5 | 5.2 | 0.00 | 0.00 | 0.00 | 94 | 1007.7 |
| 20260506050603 | 0 | 320 | 0.9 | 2.6 | 0.00 | 0.00 | 0.00 | 94 | 1007.8 |
| 20260506050104 | 0 | 352 | 7.0 | 7.0 | 0.00 | 0.00 | 0.00 | 94 | 1007.8 |
| 20260506045102 | 0 | 14 | 1.7 | 2.6 | 0.00 | 0.00 | 0.00 | 94 | 1008.1 |
| 20260506044603 | 0 | 266 | 3.5 | 5.2 | 0.00 | 0.00 | 0.00 | 94 | 1008.0 |
| 20260506044102 | 0 | 220 | 5.2 | 5.2 | 0.00 | 0.00 | 0.00 | 94 | 1008.1 |
| 20260506043603 | 0 | 354 | 7.8 | 14.8 | 0.00 | 0.00 | 0.00 | 94 | 1007.3 |
| 20260506043102 | 0 | 315 | 3.5 | 7.8 | 0.00 | 0.00 | 0.00 | 94 | 1007.8 |
| 20260506042603 | 0 | 281 | 1.7 | 3.5 | 0.00 | 0.00 | 0.00 | 94 | 1008.7 |
| 20260506042102 | 0 | 281 | 0.9 | 3.5 | 0.00 | 0.00 | 0.00 | 94 | 1008.2 |
| 20260506041603 | 0 | 311 | 0.9 | 4.3 | 0.00 | 0.00 | 0.00 | 94 | 1007.8 |
| 20260506041103 | 0 | 14 | 1.7 | 3.5 | 0.00 | 0.00 | 0.00 | 94 | 1008.1 |
| 20260506040603 | 0 | 327 | 2.6 | 4.3 | 0.00 | 0.00 | 0.00 | 94 | 1008.2 |
| 20260506035603 | 0 | 326 | 1.7 | 2.6 | 0.00 | 0.00 | 0.00 | 94 | 1008.5 |
| 20260506035103 | 0 | 70 | 2.6 | 3.5 | 0.00 | 0.00 | 0.00 | 94 | 1008.6 |
| 20260506034603 | 0 | 320 | 2.6 | 2.6 | 0.00 | 0.00 | 0.00 | 94 | 1008.8 |
| 20260506034102 | 0 | 255 | 0.0 | 1.7 | 0.00 | 0.00 | 0.00 | 94 | 1008.3 |
| 20260506033602 | 0 | 313 | 1.7 | 2.6 | 0.00 | 0.00 | 0.00 | 94 | 1008.5 |
| 20260506033102 | 0 | 331 | 2.6 | 4.3 | 0.00 | 0.00 | 0.00 | 94 | 1008.6 |
| 20260506032603 | 0 | 350 | 1.7 | 5.2 | 0.00 | 0.00 | 0.00 | 94 | 1008.5 |
| 20260506032102 | 0 | 0 | 0.0 | 1.7 | 0.00 | 0.00 | 0.00 | 94 | 1008.6 |
| 20260506031602 | 0 | 313 | 3.5 | 6.1 | 0.00 | 0.00 | 0.00 | 94 | 1008.5 |
| 20260506031103 | 0 | 285 | 3.5 | 5.2 | 0.00 | 0.00 | 0.00 | 94 | 1008.2 |
| 20260506030603 | 0 | 323 | 5.2 | 7.0 | 0.00 | 0.00 | 0.00 | 94 | 1008.3 |
| 20260506030103 | 0 | 312 | 2.6 | 8.7 | 0.00 | 0.00 | 0.00 | 94 | 1008.3 |
| 20260506025603 | 0 | 340 | 5.2 | 10.4 | 0.00 | 0.00 | 0.00 | 94 | 1008.7 |
| 20260506025102 | 0 | 251 | 1.7 | 11.3 | 0.00 | 0.00 | 0.00 | 94 | 1008.7 |
| 20260506024604 | 0 | 254 | 0.9 | 6.1 | 0.00 | 0.00 | 0.00 | 94 | 1008.2 |
| 20260506024102 | 0 | 337 | 5.2 | 7.8 | 0.00 | 0.00 | 0.00 | 94 | 1008.2 |
| 20260506023603 | 0 | 353 | 2.6 | 6.1 | 0.00 | 0.00 | 0.00 | 93 | 1007.7 |
| 20260506023102 | 0 | 17 | 2.6 | 3.5 | 0.00 | 0.00 | 0.00 | 93 | 1007.8 |
| 20260506022607 | 0 | 345 | 0.0 | 5.2 | 0.00 | 0.00 | 0.00 | 93 | 1007.8 |
| 20260506022102 | 0 | 335 | 4.3 | 5.2 | 0.00 | 0.00 | 0.00 | 93 | 1008.3 |
| 20260506021603 | 0 | 332 | 1.7 | 4.3 | 0.00 | 0.00 | 0.00 | 93 | 1008.2 |
| 20260506021103 | 0 | 23 | 0.9 | 4.3 | 0.00 | 0.00 | 0.00 | 93 | 1008.6 |
| 20260506020603 | 0 | 357 | 1.7 | 4.3 | 0.00 | 0.00 | 0.00 | 93 | 1008.7 |
| 20260506020104 | 0 | 0 | 1.7 | 2.6 | 0.00 | 0.00 | 0.00 | 93 | 1008.7 |
| 20260506015603 | 0 | 358 | 5.2 | 5.2 | 0.00 | 0.00 | 0.00 | 93 | 1008.6 |
| 20260506015103 | 0 | 297 | 0.0 | 0.9 | 0.00 | 0.00 | 0.00 | 93 | 1009.0 |
| 20260506014603 | 0 | 5 | 0.9 | 4.3 | 0.00 | 0.00 | 0.00 | 93 | 1008.8 |
| 20260506014103 | 0 | 345 | 0.0 | 5.2 | 0.00 | 0.00 | 0.00 | 93 | 1008.8 |
| 20260506013602 | 0 | 23 | 0.9 | 3.5 | 0.00 | 0.00 | 0.00 | 93 | 1008.7 |
| 20260506013104 | 0 | 356 | 0.9 | 2.6 | 0.00 | 0.00 | 0.00 | 93 | 1008.8 |
| 20260506012603 | 0 | 180 | 0.0 | 0.0 | 0.00 | 0.00 | 0.00 | 93 | 1009.2 |
| 20260506012103 | 0 | 300 | 0.9 | 2.6 | 0.00 | 0.00 | 0.00 | 93 | 1008.8 |
| 20260506011603 | 0 | 0 | 0.0 | 0.9 | 0.00 | 0.00 | 0.00 | 92 | 1009.2 |
| 20260506011103 | 0 | 0 | 2.6 | 5.2 | 0.00 | 0.00 | 0.00 | 92 | 1009.2 |
| 20260506010603 | 0 | 5 | 0.9 | 2.6 | 0.00 | 0.00 | 0.00 | 92 | 1009.5 |
| 20260506010103 | 0 | 350 | 3.5 | 7.0 | 0.00 | 0.00 | 0.00 | 92 | 1009.3 |
| 20260506005603 | 0 | 20 | 2.6 | 6.1 | 0.00 | 0.00 | 0.00 | 92 | 1009.3 |
| 20260506005104 | 0 | 23 | 0.0 | 2.6 | 0.00 | 0.00 | 0.00 | 92 | 1009.3 |
| 20260506004604 | 0 | 285 | 0.9 | 1.7 | 0.00 | 0.00 | 0.00 | 92 | 1009.3 |
| 20260506004102 | 0 | 323 | 3.5 | 4.3 | 0.00 | 0.00 | 0.00 | 91 | 1009.7 |
| 20260506003604 | 0 | 350 | 3.5 | 3.5 | 0.00 | 0.00 | 0.00 | 91 | 1009.7 |
| 20260506003103 | 0 | 354 | 0.0 | 2.6 | 0.00 | 0.00 | 0.00 | 91 | 1009.8 |
| 20260506002602 | 0 | 351 | 2.6 | 3.5 | 0.00 | 0.00 | 0.00 | 91 | 1009.8 |
| 20260506002102 | 0 | 15 | 0.0 | 2.6 | 0.00 | 0.00 | 0.00 | 90 | 1009.7 |
| 20260506001602 | 0 | 0 | 0.0 | 2.6 | 0.00 | 0.00 | 0.00 | 90 | 1009.7 |
| 20260506001103 | 0 | 261 | 0.0 | 0.9 | 0.00 | 0.00 | 0.00 | 89 | 1010.0 |
| 20260506000602 | 0 | 261 | 0.0 | 1.7 | 0.00 | 0.00 | 0.00 | 89 | 1009.6 |
| 20260505235602 | 0 | 33 | 4.3 | 4.3 | 0.00 | 0.00 | 0.00 | 89 | 1009.7 |
| 20260505235103 | 0 | 0 | 2.6 | 7.0 | 0.00 | 0.00 | 0.00 | 89 | 1009.8 |
| 20260505234603 | 0 | 18 | 2.6 | 5.2 | 0.00 | 0.00 | 0.00 | 88 | 1010.0 |
| 20260505234102 | 0 | 348 | 0.9 | 1.7 | 0.00 | 0.00 | 0.00 | 88 | 1010.0 |
| 20260505233603 | 0 | 332 | 1.7 | 2.6 | 0.00 | 0.00 | 0.00 | 88 | 1010.2 |
| 20260505233103 | 0 | 0 | 0.9 | 1.7 | 0.00 | 0.00 | 0.00 | 87 | 1010.2 |
| 20260505232603 | 0 | 0 | 0.0 | 3.5 | 0.00 | 0.00 | 0.00 | 87 | 1010.3 |
| 20260505232102 | 0 | 343 | 3.5 | 4.3 | 0.00 | 0.00 | 0.00 | 87 | 1010.5 |
| 20260505231602 | 0 | 352 | 5.2 | 7.0 | 0.00 | 0.00 | 0.00 | 86 | 1010.7 |
| 20260505231103 | 0 | 351 | 1.7 | 7.0 | 0.00 | 0.00 | 0.00 | 86 | 1010.7 |
| 20260505230602 | 0 | 351 | 2.6 | 6.1 | 0.00 | 0.00 | 0.00 | 86 | 1010.8 |
| 20260505225603 | 0 | 323 | 1.7 | 7.0 | 0.00 | 0.00 | 0.00 | 87 | 1010.8 |
| 20260505225103 | 0 | 352 | 3.5 | 6.1 | 0.00 | 0.00 | 0.00 | 87 | 1010.8 |
| 20260505224602 | 0 | 315 | 1.7 | 3.5 | 0.00 | 0.00 | 0.00 | 87 | 1011.1 |
| 20260505224103 | 0 | 0 | 1.7 | 4.3 | 0.00 | 0.00 | 0.00 | 87 | 1011.2 |
| 20260505223603 | 0 | 6 | 1.7 | 3.5 | 0.00 | 0.00 | 0.00 | 87 | 1011.2 |
| 20260505223103 | 0 | 262 | 0.0 | 0.9 | 0.00 | 0.00 | 0.00 | 87 | 1011.3 |
| 20260505222603 | 0 | 66 | 0.0 | 1.7 | 0.00 | 0.00 | 0.00 | 87 | 1011.2 |
| 20260505222103 | 0 | 339 | 1.7 | 2.6 | 0.00 | 0.00 | 0.00 | 87 | 1011.2 |
| 20260505221602 | 0 | 353 | 3.5 | 5.2 | 0.00 | 0.00 | 0.00 | 87 | 1011.6 |
| 20260505221102 | 0 | 23 | 4.3 | 5.2 | 0.00 | 0.00 | 0.00 | 87 | 1011.2 |
| 20260505220603 | 0 | 330 | 0.0 | 5.2 | 0.00 | 0.00 | 0.00 | 87 | 1011.2 |
| 20260505220103 | 0 | 59 | 0.9 | 5.2 | 0.00 | 0.00 | 0.00 | 87 | 1011.1 |
| 20260505215603 | 0 | 357 | 1.7 | 5.2 | 0.00 | 0.00 | 0.00 | 87 | 1011.2 |
| 20260505215102 | 0 | 14 | 0.9 | 3.5 | 0.00 | 0.00 | 0.00 | 87 | 1011.2 |
| 20260505214602 | 0 | 354 | 1.7 | 2.6 | 0.00 | 0.00 | 0.00 | 88 | 1011.3 |
| 20260505214102 | 0 | 7 | 0.9 | 5.2 | 0.00 | 0.00 | 0.00 | 87 | 1011.3 |
| 20260505213603 | 0 | 324 | 3.5 | 3.5 | 0.00 | 0.00 | 0.00 | 88 | 1011.6 |
| 20260505213103 | 0 | 21 | 1.7 | 3.5 | 0.00 | 0.00 | 0.00 | 88 | 1011.6 |
| 20260505212602 | 0 | 354 | 2.6 | 3.5 | 0.00 | 0.00 | 0.00 | 88 | 1011.5 |
| 20260505212102 | 0 | 24 | 2.6 | 4.3 | 0.00 | 0.00 | 0.00 | 89 | 1011.6 |
| 20260505211603 | 0 | 358 | 2.6 | 4.3 | 0.00 | 0.00 | 0.00 | 89 | 1011.7 |
| 20260505211103 | 0 | 11 | 0.0 | 5.2 | 0.00 | 0.00 | 0.00 | 89 | 1011.3 |
| 20260505210603 | 0 | 353 | 3.5 | 4.3 | 0.00 | 0.00 | 0.00 | 89 | 1011.3 |
| 20260505205602 | 0 | 23 | 0.9 | 5.2 | 0.00 | 0.00 | 0.00 | 90 | 1011.6 |
| 20260505205103 | 0 | 26 | 1.7 | 2.6 | 0.00 | 0.00 | 0.00 | 90 | 1011.7 |
| 20260505204603 | 0 | 354 | 1.7 | 3.5 | 0.00 | 0.00 | 0.00 | 89 | 1011.7 |
| 20260505204102 | 0 | 253 | 0.9 | 1.7 | 0.00 | 0.00 | 0.00 | 89 | 1011.8 |
| 20260505203603 | 0 | 306 | 0.9 | 2.6 | 0.00 | 0.00 | 0.00 | 89 | 1011.6 |
| 20260505203102 | 0 | 294 | 0.0 | 0.9 | 0.00 | 0.00 | 0.00 | 89 | 1012.0 |
| 20260505202602 | 0 | 270 | 0.0 | 1.7 | 0.00 | 0.00 | 0.00 | 88 | 1011.8 |
| 20260505201603 | 0 | 0 | 0.0 | 1.7 | 0.00 | 0.00 | 0.00 | 88 | 1012.1 |
| 20260505201102 | 0 | 344 | 0.9 | 0.9 | 0.00 | 0.00 | 0.00 | 87 | 1012.0 |
| 20260505200603 | 0 | 187 | 0.9 | 0.9 | 0.00 | 0.00 | 0.00 | 87 | 1011.8 |
| 20260505195603 | 0 | 0 | 0.0 | 1.7 | 0.00 | 0.00 | 0.00 | 86 | 1011.7 |
| 20260505195103 | 0 | 180 | 0.0 | 0.9 | 0.00 | 0.00 | 0.00 | 85 | 1011.7 |
| 20260505194603 | 0 | 249 | 0.0 | 0.9 | 0.00 | 0.00 | 0.00 | 85 | 1011.5 |
| 20260505194103 | 0 | 117 | 0.9 | 1.7 | 0.00 | 0.00 | 0.00 | 84 | 1011.6 |
| 20260505193602 | 0 | 180 | 0.9 | 0.9 | 0.00 | 0.00 | 0.00 | 84 | 1011.3 |
| 20260505193102 | 0 | 180 | 0.0 | 0.9 | 0.00 | 0.00 | 0.00 | 83 | 1011.7 |
| 20260505192602 | 0 | 111 | 0.0 | 1.7 | 0.00 | 0.00 | 0.00 | 83 | 1011.5 |
| 20260505192103 | 0 | 188 | 0.0 | 0.9 | 0.00 | 0.00 | 0.00 | 83 | 1011.5 |
| 20260505191603 | 0 | 145 | 0.9 | 1.7 | 0.00 | 0.00 | 0.00 | 82 | 1011.5 |
| 20260505191102 | 0 | 126 | 1.7 | 2.6 | 0.00 | 0.00 | 0.00 | 82 | 1011.3 |
| 20260505190602 | 0 | 180 | 3.5 | 5.2 | 0.00 | 0.00 | 0.00 | 81 | 1011.3 |
| 20260505190103 | 0 | 201 | 1.7 | 3.5 | 0.00 | 0.00 | 0.00 | 82 | 1011.2 |
| 20260505185602 | 0 | 145 | 0.9 | 2.6 | 0.00 | 0.00 | 0.00 | 82 | 1011.2 |
| 20260505185102 | 0 | 151 | 0.9 | 3.5 | 0.00 | 0.00 | 0.00 | 82 | 1011.2 |
| 20260505184603 | 0 | 218 | 0.0 | 2.6 | 0.00 | 0.00 | 0.00 | 81 | 1011.3 |
| 20260505184102 | 0 | 180 | 3.5 | 3.5 | 0.00 | 0.00 | 0.00 | 81 | 1011.2 |
| 20260505183603 | 0 | 177 | 4.3 | 6.1 | 0.00 | 0.00 | 0.00 | 81 | 1011.3 |
| 20260505183103 | 0 | 197 | 2.6 | 3.5 | 0.00 | 0.00 | 0.00 | 82 | 1011.2 |
| 20260505182603 | 0 | 187 | 3.5 | 6.1 | 0.00 | 0.00 | 0.00 | 82 | 1011.3 |
| 20260505182103 | 0 | 197 | 2.6 | 5.2 | 0.00 | 0.00 | 0.00 | 82 | 1011.7 |
| 20260505181603 | 0 | 252 | 3.5 | 5.2 | 0.00 | 0.00 | 0.00 | 82 | 1011.5 |
| 20260505181103 | 0 | 198 | 3.5 | 6.1 | 0.00 | 0.00 | 0.00 | 81 | 1011.2 |
| 20260505180602 | 0 | 183 | 3.5 | 5.2 | 0.00 | 0.00 | 0.00 | 82 | 1011.3 |
| 20260505175603 | 0 | 161 | 3.5 | 6.1 | 0.00 | 0.00 | 0.00 | 82 | 1011.2 |
| 20260505175103 | 0 | 182 | 5.2 | 7.0 | 0.00 | 0.00 | 0.00 | 82 | 1011.2 |
| 20260505174603 | 0 | 180 | 3.5 | 7.0 | 0.00 | 0.00 | 0.00 | 82 | 1011.1 |
| 20260505174103 | 0 | 179 | 4.3 | 7.8 | 0.00 | 0.00 | 0.00 | 82 | 1011.2 |
| 20260505173603 | 0 | 157 | 2.6 | 5.2 | 0.00 | 0.00 | 0.00 | 82 | 1011.2 |
| 20260505173102 | 0 | 194 | 5.2 | 7.0 | 0.00 | 0.00 | 0.00 | 81 | 1011.2 |
| 20260505172602 | 0 | 180 | 2.6 | 6.1 | 0.00 | 0.00 | 0.00 | 81 | 1011.2 |
| 20260505172102 | 0 | 238 | 3.5 | 7.0 | 0.00 | 0.00 | 0.00 | 81 | 1011.2 |
| 20260505171602 | 0 | 243 | 2.6 | 6.1 | 0.00 | 0.00 | 0.00 | 80 | 1010.8 |
| 20260505171103 | 0 | 215 | 1.7 | 6.1 | 0.00 | 0.00 | 0.00 | 79 | 1011.2 |
| 20260505170603 | 0 | 194 | 0.9 | 4.3 | 0.00 | 0.00 | 0.00 | 79 | 1011.2 |
| 20260505170103 | 0 | 194 | 1.7 | 7.0 | 0.00 | 0.00 | 0.00 | 79 | 1011.2 |
| 20260505165603 | 0 | 180 | 3.5 | 5.2 | 0.00 | 0.00 | 0.00 | 78 | 1011.1 |
| 20260505165103 | 0 | 127 | 3.5 | 6.1 | 0.00 | 0.00 | 0.00 | 78 | 1011.1 |
| 20260505164603 | 0 | 161 | 3.5 | 7.0 | 0.00 | 0.00 | 0.00 | 78 | 1011.1 |
| 20260505164102 | 0 | 169 | 5.2 | 7.0 | 0.00 | 0.00 | 0.00 | 78 | 1011.1 |
| 20260505163603 | 0 | 176 | 4.3 | 5.2 | 0.00 | 0.00 | 0.00 | 77 | 1010.8 |
| 20260505163103 | 0 | 177 | 4.3 | 5.2 | 0.00 | 0.00 | 0.00 | 77 | 1011.0 |
| 20260505162603 | 0 | 180 | 5.2 | 5.2 | 0.00 | 0.00 | 0.00 | 77 | 1011.2 |
| 20260505162102 | 0 | 170 | 4.3 | 5.2 | 0.00 | 0.00 | 0.00 | 77 | 1011.2 |
| 20260505161603 | 0 | 176 | 4.3 | 7.0 | 0.00 | 0.00 | 0.00 | 76 | 1011.2 |
| 20260505161103 | 0 | 161 | 1.7 | 4.3 | 0.00 | 0.00 | 0.00 | 76 | 1011.2 |
| 20260505160603 | 0 | 143 | 3.5 | 5.2 | 0.00 | 0.00 | 0.00 | 75 | 1011.3 |
| 20260505153102 | 0 | 150 | 3.5 | 6.1 | 0.00 | 0.00 | 0.00 | 77 | 1011.6 |
| 20260505152603 | 0 | 121 | 4.3 | 7.8 | 0.00 | 0.00 | 0.00 | 76 | 1011.6 |
| 20260505152103 | 0 | 180 | 5.2 | 9.6 | 0.00 | 0.00 | 0.00 | 75 | 1011.6 |
| 20260505151602 | 0 | 180 | 1.7 | 7.0 | 0.00 | 0.00 | 0.00 | 76 | 1011.7 |
| 20260505151103 | 0 | 165 | 7.0 | 7.8 | 0.00 | 0.00 | 0.00 | 76 | 1011.6 |
| 20260505150603 | 0 | 180 | 3.5 | 7.0 | 0.00 | 0.00 | 0.00 | 77 | 1011.5 |
| 20260505140603 | 0 | 185 | 3.5 | 8.7 | 0.00 | 0.00 | 0.00 | 72 | 1011.3 |
| 20260505124602 | 0 | 197 | 3.5 | 11.3 | 0.00 | 0.00 | 0.00 | 72 | 1011.7 |
| 20260505124103 | 0 | 134 | 7.0 | 11.3 | 0.00 | 0.00 | 0.00 | 73 | 1011.6 |
| 20260505123602 | 0 | 196 | 6.1 | 7.8 | 0.00 | 0.00 | 0.00 | 72 | 1011.7 |
| 20260505123102 | 0 | 176 | 8.7 | 9.6 | 0.00 | 0.00 | 0.00 | 72 | 1011.7 |
| 20260505122602 | 0 | 175 | 3.5 | 5.2 | 0.00 | 0.00 | 0.00 | 74 | 1011.6 |
| 20260505122102 | 0 | 189 | 6.1 | 8.7 | 0.00 | 0.00 | 0.00 | 75 | 1011.7 |
| 20260505121602 | 0 | 171 | 7.0 | 10.4 | 0.00 | 0.00 | 0.00 | 73 | 1011.7 |
| 20260505121102 | 0 | 94 | 1.7 | 5.2 | 0.00 | 0.00 | 0.00 | 73 | 1011.5 |
| 20260505120603 | 0 | 135 | 3.5 | 11.3 | 0.00 | 0.00 | 0.00 | 74 | 1011.6 |
| 20260505120103 | 0 | 126 | 3.5 | 7.0 | 0.00 | 0.00 | 0.00 | 74 | 1011.7 |
| 20260505115102 | 0 | 172 | 7.0 | 11.3 | 0.00 | 0.00 | 0.00 | 75 | 1011.3 |
| 20260505114602 | 0 | 198 | 5.2 | 8.7 | 0.00 | 0.00 | 0.00 | 77 | 1011.6 |
| 20260505114102 | 0 | 198 | 7.0 | 10.4 | 0.00 | 0.00 | 0.00 | 77 | 1011.7 |
| 20260505113602 | 0 | 182 | 11.3 | 11.3 | 0.00 | 0.00 | 0.00 | 77 | 1011.6 |
| 20260505113103 | 0 | 202 | 2.6 | 13.0 | 0.00 | 0.00 | 0.00 | 77 | 1011.5 |
| 20260505112603 | 0 | 180 | 7.0 | 18.2 | 0.00 | 0.00 | 0.00 | 77 | 1011.3 |
| 20260505112103 | 0 | 181 | 9.6 | 13.9 | 0.00 | 0.00 | 0.00 | 76 | 1011.5 |
| 20260505111602 | 0 | 125 | 6.1 | 9.6 | 0.00 | 0.00 | 0.00 | 77 | 1011.6 |
| 20260505111103 | 0 | 153 | 3.5 | 11.3 | 0.00 | 0.00 | 0.00 | 77 | 1011.5 |
| 20260505110603 | 0 | 151 | 7.0 | 7.8 | 0.00 | 0.00 | 0.00 | 78 | 1011.2 |
| 20260505102102 | 0 | 300 | 0.0 | 0.9 | 0.00 | 0.00 | 0.00 | 88 | 1011.5 |
| 20260505101602 | 0 | 285 | 0.9 | 1.7 | 0.00 | 0.00 | 0.00 | 90 | 1011.2 |
| 20260505101103 | 0 | 0 | 0.0 | 2.6 | 0.00 | 0.00 | 0.00 | 92 | 1011.3 |
| 20260505100602 | 0 | 270 | 0.0 | 1.7 | 0.00 | 0.00 | 0.00 | 92 | 1011.2 |
| 20260505095604 | 0 | 90 | 0.0 | 0.9 | 0.00 | 0.00 | 0.00 | 93 | 1011.2 |
| 20260505095103 | 0 | 107 | 0.9 | 1.7 | 0.00 | 0.00 | 0.00 | 93 | 1011.2 |
| 20260505094602 | 0 | 0 | 0.0 | 2.6 | 0.00 | 0.00 | 0.00 | 93 | 1011.2 |
| 20260505094102 | 0 | 78 | 0.0 | 3.5 | 0.00 | 0.00 | 0.00 | 94 | 1011.5 |
| 20260505093602 | 0 | 355 | 0.9 | 2.6 | 0.00 | 0.00 | 0.00 | 93 | 1011.3 |
| 20260505093104 | 0 | 351 | 0.9 | 2.6 | 0.00 | 0.00 | 0.00 | 94 | 1011.2 |
| 20260505092603 | 0 | 328 | 0.0 | 2.6 | 0.00 | 0.00 | 0.00 | 94 | 1011.2 |
| 20260505092103 | 0 | 357 | 1.7 | 2.6 | 0.00 | 0.00 | 0.00 | 94 | 1011.3 |
| 20260505091602 | 0 | 338 | 1.7 | 2.6 | 0.00 | 0.00 | 0.00 | 94 | 1011.5 |
| 20260505091103 | 0 | 334 | 0.9 | 2.6 | 0.00 | 0.00 | 0.00 | 94 | 1011.2 |
| 20260505090603 | 0 | 270 | 0.9 | 1.7 | 0.00 | 0.00 | 0.00 | 94 | 1011.6 |
| 20260505085603 | 0 | 0 | 0.9 | 2.6 | 0.00 | 0.00 | 0.00 | 95 | 1011.5 |
| 20260505085104 | 0 | 356 | 1.7 | 2.6 | 0.00 | 0.00 | 0.00 | 95 | 1011.5 |
| 20260505084603 | 0 | 40 | 0.9 | 2.6 | 0.00 | 0.00 | 0.00 | 95 | 1011.3 |
| 20260505084102 | 0 | 0 | 0.9 | 4.3 | 0.00 | 0.00 | 0.00 | 95 | 1011.5 |
| 20260505083604 | 0 | 342 | 0.9 | 3.5 | 0.00 | 0.00 | 0.00 | 94 | 1011.5 |
| 20260505083103 | 0 | 356 | 0.9 | 1.7 | 0.00 | 0.00 | 0.00 | 95 | 1011.3 |
| 20260505082603 | 0 | 4 | 0.9 | 1.7 | 0.00 | 0.00 | 0.00 | 95 | 1011.2 |
| 20260505082103 | 0 | 7 | 0.0 | 1.7 | 0.00 | 0.00 | 0.00 | 95 | 1011.2 |
| 20260505081602 | 0 | 337 | 0.9 | 2.6 | 0.00 | 0.00 | 0.00 | 95 | 1011.2 |